User: anonymous   Login
Location: ??
(35.1715°N, 139.6450°E)
Time: 11:47:33
(UTC+00:00)
Language:

Delta 2 Rocket - Orbit

View from above orbital plane
View from above orbital plane
View from above satellite
View from above satellite

Ground track
Ground track

The orbit data is extracted from the following two-line orbital elements,

1 20453U 90008B   25318.74997550  .00035915  00000-0  61572-3 0  9993
2 20453  35.6069 200.9160 0117629 283.3097  75.4541 15.42699894908304
Epoch (UTC): 14 November 2025 17:59:57
Eccentricity: 0.0117629
inclination: 35.6069°
perigee height: 358 km
apogee height: 518 km
right ascension of ascending node: 200.9160°
argument of perigee: 283.3097°
revolutions per day: 15.42699894
mean anomaly at epoch: 75.4541°
orbit number at epoch: 90830

The dashed part of the orbit path shows where the satellite is in the earth's shadow,  

DLR